Regional Weather Roundup
Issued by NWS Charleston, SC

Current Version | Previous Version | Text Only | Print | Product List | Glossary Off
Versions: 1 2 3 4 5 6 7 8 9 10 11 12 13 14 15 16 17 18 19 20 21 22 23 24 25 26 27 28 29 30 31 32 33 34 35 36 37 38 39 40 41 42 43 44 45 46 47 48 49 50
000 ASUS42 KCHS 250512 RWRCHS REGIONAL WEATHER ROUNDUP NATIONAL WEATHER SERVICE CHARLESTON SC 100 AM EDT SUN JUN 25 2017 NOTE: "FAIR" INDICATES FEW OR NO CLOUDS BELOW 12,000 FEET WITH NO SIGNIFICANT WEATHER AND/OR OBSTRUCTIONS TO VISIBILITY. NOT ALL STATIONS ARE QUALITY CONTROLLED. USE DATA WITH CAUTION... ESPECIALLY DEWPOINT OBSERVATIONS. SCZ027-030-031-034>040-042>050-250600- ...SOUTHEAST SOUTH CAROLINA... CITY SKY/WX TMP DP RH WIND PRES REMARKS N CHARLESTON MOCLDY 78 75 90 S3 30.05F WATERFRONT PRK N/A 81 79 94 SW6 30.04S HX 90 JOHNS ISLAND CLOUDY 82 77 83 SW7 30.06S HX 91 PINOPOLIS N/A 77 73 88 VRB2 29.98S MONCKS CORNER FAIR 75 72 88 CALM 30.05S SUMMERVILLE MOCLDY 77 72 83 CALM 30.05F BEAUFORT MCAS CLOUDY 82 75 79 NW6 30.06S BEAUFORT ARPT NOT AVBL HILTON HEAD IS CLEAR 82 79 89 SW6G12 30.07S HX 93 WALTERBORO CLOUDY 77 72 83 SW8 30.06F ALLENDALE CLOUDY 75 75 100 CALM 30.05S ...SOUTHERN MIDLANDS AND PEE DEE... CITY SKY/WX TMP DP RH WIND PRES REMARKS GEORGETOWN MOCLDY 73 73 100 S5 30.06F KINGSTREE FAIR 73 72 94 CALM 30.04S ORANGEBURG PTCLDY 74 73 97 SW3 30.05R BARNWELL FAIR 75 75 100 SW5 30.05F AIKEN MOCLDY 72 70 94 CALM 30.07F MANNING FAIR 73 73 100 S3 30.04S COLUMBIA CLOUDY 76 72 87 W6 30.03S SUMTER MOCLDY 74 72 93 SW6 30.01S FLORENCE CLOUDY 75 74 96 SW7 30.04R MYRTLE BEACH NOT AVBL N MYRTLE BEACH CLOUDY 79 75 87 SW9 30.04S $$ GAZ063-065-086>088-099>101-113>116-118-119-134>141-150-250600- ...SOUTHEAST GEORGIA... CITY SKY/WX TMP DP RH WIND PRES REMARKS SAVANNAH ARPT PTCLDY 81 74 79 W3 30.07R HUNTER AAF MOCLDY 81 77 87 CALM 30.04S FORT STEWART MOCLDY 78 74 87 CALM 30.04F STATESBORO CLOUDY 77 77 100 SE6 30.07S SYLVANIA RAIN 76 76 100 S3 30.09R CLAXTON CLOUDY 76 73 89 CALM 30.08R ...CSRA...CENTRAL AND FAR SOUTHEAST GEORGIA... CITY SKY/WX TMP DP RH WIND PRES REMARKS THOMSON CLOUDY 70 69 95 CALM 30.10F AUGUSTA-BUSH CLOUDY 76 72 87 SE8 30.01F AUGUSTA-DANIEL CLOUDY 76 67 73 VRB3 30.03F SWAINSBORO HVY RAIN 77 77 100 CALM 30.09R VIDALIA CLOUDY 79 77 94 NE5 30.07S EASTMAN CLOUDY 79 79 100 CALM 30.09S HAZLEHURST N/A 80 78 94 SW5 30.06S ALMA CLEAR 80 73 79 S5 30.07R WAYCROSS CLEAR 81 79 94 SW6 30.08R JESUP FAIR 77 73 88 CALM 30.07S BAXLEY FAIR 79 79 100 CALM 30.07S BRUNSWICK CLEAR 81 77 89 SW6 30.08S SAINT SIMONS CLEAR 83 77 82 SW7 30.07R HX 92 $$ SCZ027-028-034-036>038-045-046-048>050-GAZ119-141-250600- ...LAKE AND SUPPLEMENTAL COASTAL OBSERVATIONS... STATION/POSITION TIME TEMP WIND PRES WAVE SWELL AIR SEA DIR/SP/G HT/PER HT/PER/DIR (UTC) (F) (DEG/KT/KT) (MB) (FT/S) (FT/S/D) WINYAH BAY 0345 78 240/ 6 1018.0 LAKE MURRAY 0420 76 280/ 6/ 9 1016.3S ACE BASIN NERRS 0345 79 CALM 1018.0 FORT PULASKI 0448 82 84 220/ 6/ 9 1018.2S SAPELO ISLAND 0400 82 190/ 10 1018.0 $$ ANZ835-935-AMZ111-154-330-350-352-354-370-450-454-472-250600- ...C-MAN AND BUOY OBSERVATIONS... STATION/POSITION TIME TEMP WIND PRES WAVE SWELL AIR SEA DIR/SP/G HT/PER HT/PER/DIR (UTC) (F) (DEG/KT/KT) (MB) (FT/S) (FT/S/D) BUOY 41004 0450 81 81 210/ 17/ 21 1017.4F 4/ 5 2/140/ 8 BUOY 41008 0350 82 82 180/ 17/ 19 1017.4 3/10 2/130/10 FOLLY BEACH CMAN 0500 82 220/ 12/ 16 1018.3F CAPERS NEARSHORE 0408 87 83 230/ 16/ 19 1017.5S FRIPP NEARSHORE 0408 83 83 220/ 14/ 17 1017.6R STATION/POSITION TIME TEMP WIND PRES WAVE SWELL AIR SEA DIR/SP/G HT/PER HT/PER/DIR (UTC) (F) (DEG/KT/KT) (MB) (FT/S) (FT/S/D) 5E ST. MARYS GA 0430 79 N/A 3/10 FRYING PAN BUOY 0450 81 81 240/ 14/ 17 1017.5S 5/ 6 2/150/ 9 BUOY 41025 0450 80 80 260/ 19/ 23 1016.0R 7/ 7 CAPE LOOKOUT NC 0500 75 260/ 14/ 16 1016.7S BUOY 41002 0350 81 81 210/ 12/ 16 1020.3 4/ 5 2/ 90/ 8 BUOY 41010 0450 82 83 160/ 14/ 16 1019.5F 4/ 8 3/110/ 8 ST AUGUSTINE FL 0500 79 78 210/ 7/ 7 1019.1R $$

USA.gov is the U.S. government's official web portal to all federal, state and local government web resources and services.